Wind_Speed
23 23 23 23 22 22 22 22 22 21 21 21 20 20 20 20 19 18 18 17 18 18 18 17 17 16 17 17 17 17 17 17 17 16 16 15 15 15
25 25 25 25 24 24 24 24 23 23 22 22 22 22 22 21 20 19 19 19 19 19 19 19 19 19 18 18 18 18 18 18 17 17 17 16 16 16
27 27 27 26 26 25 25 25 25 25 24 24 24 24 23 23 22 21 21 20 20 20 20 20 19 19 19 19 19 19 19 19 19 18 19 18 18 18
28 28 28 28 28 28 27 27 27 26 26 26 26 25 25 24 23 23 22 22 22 21 21 21 21 21 21 21 21 21 21 21 20 20 20 20 20 19
29 29 29 29 29 29 29 29 29 28 28 28 28 27 27 26 26 25 25 24 24 23 22 22 22 22 22 21 21 21 21 21 21 21 21 21 21 20
31 31 31 31 30 30 30 29 29 29 29 29 29 28 28 28 27 26 26 25 25 25 24 24 24 24 23 22 22 22 22 22 22 22 22 22 21 21
33 32 32 32 31 30 30 30 30 30 30 29 29 29 29 28 27 27 27 26 26 26 26 26 25 24 24 24 23 23 23 23 23 23 22 22 22 22
35 34 33 33 32 32 32 31 31 31 31 31 30 30 28 28 28 28 28 27 27 27 27 27 26 25 24 24 24 24 24 24 24 24 24 23 23 23
35 35 34 34 34 34 33 33 32 32 32 32 31 31 30 29 29 29 29 28 28 28 28 27 27 26 25 25 25 25 25 25 25 25 24 24 24 24
35 35 35 35 35 35 34 34 34 33 32 32 32 31 31 31 31 30 29 29 29 28 29 28 28 28 27 27 27 27 27 26 26 26 25 25 25 25
35 35 35 35 35 35 35 35 34 33 33 33 33 32 32 31 31 31 31 31 30 29 30 29 29 29 29 28 28 28 28 27 26 26 26 26 25 26
35 34 34 35 35 35 35 35 34 33 33 33 33 32 31 32 32 32 32 32 32 31 30 30 30 30 30 30 29 29 29 28 28 27 27 26 26 26
36 35 35 35 35 35 35 35 34 33 33 34 33 33 32 32 32 33 33 33 33 32 31 31 31 30 30 29 29 29 28 27 27 27 27 28 27 27
36 36 35 35 34 34 35 35 35 34 34 34 34 34 34 33 33 33 33 34 34 32 32 32 31 31 30 29 29 28 27 27 27 27 27 27 28 27
35 36 36 35 35 36 36 36 35 35 34 34 34 34 34 33 32 32 33 34 34 33 32 32 31 31 31 30 29 28 28 27 27 27 27 27 28 28
36 36 37 37 37 37 37 37 36 36 35 35 34 34 34 34 33 32 33 33 33 33 33 31 31 31 30 29 29 29 28 27 27 28 28 28 28 29
36 37 37 38 37 37 37 37 36 35 35 34 34 34 34 34 33 33 33 33 33 33 33 32 31 31 30 30 30 29 29 29 28 28 28 28 28 28
36 36 37 37 38 37 37 37 36 35 34 34 34 34 34 34 33 33 32 32 32 32 32 31 31 30 30 30 29 29 29 29 29 28 28 28 29 29
36 35 36 36 36 35 35 35 35 34 34 33 33 33 32 32 32 32 31 31 31 31 31 31 31 30 30 30 30 30 29 28 28 28 27 27 27 27
36 35 34 34 34 34 34 33 33 33 32 32 32 31 31 31 30 31 31 31 30 30 31 31 31 30 30 30 31 31 29 28 28 27 27 27 27 27
34 33 33 33 33 33 33 32 32 32 31 31 31 31 30 30 30 31 31 31 31 31 31 31 31 30 30 30 30 30 29 28 28 27 27 27 27 26
32 32 32 32 32 31 31 31 31 31 31 30 30 30 30 30 30 30 31 31 31 30 31 31 30 30 29 29 29 28 28 28 27 26 26 26 26 26
32 31 31 31 31 31 30 30 30 30 30 30 30 29 29 29 30 30 30 30 30 30 30 30 29 29 29 29 29 28 28 28 28 27 26 26 26 27
Wind_Direction
287 285 284 284 284 284 283 283 283 283 282 281 282 283 285 286 284 282 282 279 278 276 273 272 274 274 272 271 271 273 274 275 275 275 275 275 276 275
286 285 284 285 285 284 282 282 281 281 281 279 281 281 281 282 281 280 279 279 278 276 275 274 275 274 273 272 272 271 272 273 273 271 272 273 275 275
287 286 284 283 283 282 281 280 280 280 281 279 280 279 279 279 278 276 276 278 278 277 276 275 276 275 274 272 271 270 270 270 271 271 272 273 274 273
286 286 284 283 283 282 281 280 280 279 279 278 278 278 277 277 276 273 274 276 276 276 275 274 275 275 274 273 272 271 270 270 270 270 271 273 273 272
283 284 283 282 282 282 281 280 279 278 278 277 276 276 276 276 275 274 273 273 273 273 273 272 273 274 273 272 271 271 271 271 270 270 271 272 273 271
281 282 283 281 282 281 280 279 278 277 277 277 276 276 275 274 274 274 272 271 270 270 270 270 272 273 272 271 270 270 271 272 271 271 272 271 272 272
281 281 281 280 279 280 280 278 277 276 276 275 275 274 273 273 272 271 271 270 270 269 269 268 270 272 272 270 269 270 271 271 270 271 272 271 271 271
279 279 279 279 278 279 279 277 277 276 276 275 273 273 273 271 271 270 270 270 269 269 268 268 269 270 270 269 268 269 270 270 269 269 271 270 270 270
278 277 277 277 276 277 277 276 277 277 275 273 273 272 270 270 270 270 269 270 270 269 268 267 268 268 267 267 267 267 268 269 269 268 269 269 268 269
278 277 276 276 275 276 276 275 276 276 275 274 274 271 269 267 268 269 269 269 269 269 269 268 267 266 265 266 266 267 268 267 267 266 266 267 267 267
277 277 277 276 275 275 275 275 274 273 274 274 273 271 269 267 267 267 268 269 268 268 268 267 266 265 265 265 265 265 266 268 268 266 266 266 266 267
277 277 276 275 275 273 273 274 273 272 273 273 272 271 268 265 265 265 267 268 268 268 267 267 267 266 264 264 264 265 266 267 268 267 266 266 266 266
276 277 276 276 274 274 274 274 274 272 272 271 271 271 270 267 266 265 265 266 266 267 267 267 267 267 266 264 264 265 265 265 266 266 266 265 265 266
276 276 276 275 274 274 273 274 275 273 271 271 271 271 270 268 267 267 266 266 266 267 267 266 266 266 265 264 264 265 265 264 264 265 265 264 264 264
275 275 274 275 275 274 274 273 272 272 271 271 271 271 270 267 267 267 266 266 265 265 265 265 265 264 264 262 262 262 263 264 264 264 264 264 264 263
275 275 274 274 275 274 272 271 271 270 271 270 270 270 268 265 266 267 267 266 264 263 261 262 263 263 263 261 261 261 262 263 263 263 263 264 265 264
278 277 275 275 274 273 271 269 269 270 270 270 269 267 266 265 264 264 265 264 263 261 259 259 261 261 261 260 260 261 262 261 262 263 263 264 264 264
278 278 277 276 274 273 270 268 268 268 267 267 268 269 266 263 263 263 264 263 262 260 258 259 260 260 259 259 259 260 262 262 262 263 264 264 264 263
279 279 278 277 276 274 272 269 267 266 265 266 268 268 265 262 263 262 262 262 261 259 258 259 259 260 259 260 260 259 260 262 263 264 263 263 262 263
278 278 278 278 276 274 272 269 267 265 265 266 266 266 262 261 261 262 262 261 260 258 257 258 259 259 261 261 260 260 260 261 262 263 263 261 260 262
278 277 278 278 277 275 272 270 268 267 266 266 266 263 261 260 261 262 261 260 259 258 257 258 259 260 260 260 259 258 259 260 259 260 262 259 258 259
278 278 279 279 277 275 272 270 269 267 265 265 264 262 263 262 260 260 260 259 258 258 258 257 257 258 259 259 259 259 258 257 258 259 260 258 257 256
278 278 279 279 277 274 271 270 268 266 265 263 262 263 264 263 261 260 259 259 258 257 256 255 256 256 257 257 257 257 257 257 257 258 259 258 256 256
Height
5802 5801 5801 5800 5799 5798 5798 5798 5798 5798 5798 5797 5797 5796 5796 5795 5795 5795 5795 5794 5794 5794 5795 5795 5795 5795 5795 5796 5796 5797 5797 5797 5798 5798 5799 5799 5800 5800
5795 5794 5794 5793 5792 5792 5791 5791 5791 5791 5791 5791 5791 5790 5790 5790 5790 5789 5789 5789 5789 5789 5789 5789 5790 5790 5790 5790 5791 5791 5792 5792 5793 5793 5794 5794 5795 5795
5788 5787 5786 5786 5785 5785 5784 5784 5784 5783 5784 5784 5784 5784 5783 5783 5783 5783 5784 5784 5784 5784 5784 5784 5784 5784 5784 5785 5785 5786 5786 5787 5787 5788 5788 5789 5789 5790
5780 5779 5778 5778 5777 5777 5776 5776 5776 5776 5776 5776 5776 5776 5776 5776 5777 5777 5777 5777 5778 5778 5778 5778 5778 5778 5778 5778 5779 5779 5780 5781 5781 5782 5783 5783 5784 5784
5772 5771 5771 5770 5769 5768 5768 5768 5767 5767 5767 5768 5768 5768 5769 5769 5769 5770 5770 5770 5771 5771 5772 5772 5772 5772 5772 5772 5772 5773 5773 5774 5775 5776 5776 5777 5777 5778
5763 5763 5762 5761 5760 5760 5759 5759 5758 5758 5758 5759 5759 5759 5760 5761 5761 5762 5762 5763 5764 5764 5764 5765 5765 5765 5765 5766 5766 5766 5767 5767 5768 5769 5769 5770 5771 5771
5754 5753 5752 5752 5751 5750 5750 5750 5750 5750 5750 5750 5750 5750 5751 5752 5753 5753 5754 5755 5756 5756 5757 5758 5758 5758 5758 5759 5759 5759 5760 5760 5761 5762 5762 5763 5764 5765
5744 5743 5743 5742 5742 5741 5741 5741 5740 5740 5740 5741 5741 5741 5742 5743 5744 5744 5745 5747 5748 5749 5749 5750 5751 5751 5751 5751 5752 5752 5753 5753 5754 5754 5755 5756 5757 5757
5733 5733 5732 5732 5732 5732 5731 5731 5731 5730 5731 5731 5731 5732 5733 5734 5735 5736 5736 5737 5739 5739 5740 5741 5742 5743 5744 5744 5744 5745 5745 5745 5746 5747 5747 5748 5749 5750
5722 5722 5721 5722 5722 5721 5721 5721 5721 5721 5721 5721 5721 5722 5723 5724 5725 5726 5727 5728 5729 5730 5731 5732 5733 5734 5735 5736 5736 5737 5737 5737 5738 5739 5740 5740 5741 5742
5712 5711 5710 5711 5711 5710 5710 5710 5710 5711 5711 5711 5711 5712 5713 5714 5715 5716 5717 5718 5720 5721 5722 5723 5724 5725 5726 5727 5727 5728 5728 5729 5730 5730 5731 5732 5733 5734
5702 5701 5700 5699 5699 5699 5699 5699 5700 5700 5701 5701 5701 5702 5702 5704 5705 5706 5707 5708 5709 5711 5712 5713 5714 5715 5717 5718 5718 5719 5720 5720 5721 5722 5722 5724 5725 5725
5690 5690 5689 5688 5688 5688 5688 5688 5689 5690 5690 5690 5691 5691 5692 5693 5694 5695 5697 5698 5699 5701 5702 5703 5704 5705 5706 5708 5709 5710 5711 5712 5712 5713 5714 5715 5716 5717
5679 5679 5678 5678 5677 5677 5677 5678 5678 5678 5678 5679 5680 5681 5681 5682 5683 5684 5685 5687 5688 5690 5691 5692 5693 5695 5696 5698 5699 5700 5701 5702 5703 5704 5705 5706 5707 5708
5666 5666 5666 5666 5666 5666 5666 5666 5666 5667 5667 5668 5669 5670 5670 5671 5672 5673 5674 5675 5677 5679 5681 5682 5683 5685 5686 5688 5689 5691 5692 5693 5694 5695 5696 5697 5697 5699
5654 5654 5654 5654 5654 5654 5654 5654 5655 5655 5655 5656 5657 5658 5658 5659 5660 5662 5663 5665 5666 5668 5670 5671 5673 5674 5676 5677 5679 5681 5682 5684 5685 5686 5686 5687 5688 5689
5643 5642 5642 5642 5642 5642 5642 5642 5642 5643 5643 5644 5645 5646 5647 5648 5649 5651 5652 5653 5655 5657 5659 5660 5662 5664 5665 5667 5669 5671 5672 5674 5675 5676 5677 5678 5679 5679
5631 5631 5630 5630 5629 5629 5629 5630 5630 5631 5632 5632 5633 5634 5635 5636 5638 5639 5641 5642 5644 5646 5648 5650 5651 5653 5655 5657 5659 5661 5663 5664 5665 5666 5667 5668 5669 5670
5620 5620 5619 5618 5617 5617 5617 5618 5618 5619 5620 5621 5621 5622 5624 5625 5627 5628 5630 5631 5633 5635 5637 5639 5641 5643 5645 5647 5649 5651 5653 5654 5655 5656 5657 5658 5659 5660
5609 5608 5607 5607 5606 5606 5606 5606 5607 5608 5609 5610 5611 5612 5613 5615 5616 5618 5620 5621 5623 5625 5627 5629 5631 5633 5635 5637 5639 5640 5641 5643 5645 5646 5647 5648 5649 5650
5598 5597 5597 5596 5595 5595 5595 5595 5596 5597 5598 5599 5600 5601 5603 5604 5606 5608 5609 5611 5612 5614 5617 5619 5621 5623 5624 5626 5628 5630 5631 5633 5634 5636 5637 5638 5640 5641
5588 5587 5586 5585 5584 5584 5584 5584 5585 5586 5588 5589 5590 5592 5593 5594 5596 5598 5599 5601 5602 5604 5606 5608 5610 5612 5614 5616 5618 5620 5622 5623 5624 5626 5627 5629 5630 5632
5577 5577 5576 5575 5574 5573 5573 5574 5574 5576 5577 5579 5580 5581 5583 5584 5586 5587 5589 5591 5592 5594 5596 5598 5600 5602 5604 5606 5608 5610 5612 5613 5615 5616 5618 5619 5621 5623